Location: Beaver Pond
(44.0424°N, 71.7933°W)
Time: 15:08:24
(UTC+00:00)

Daily predictions for brighter satellites

Satellite Brightness Start Highest point End
(mag) Time Altitude Azimuth Time Altitude Azimuth Time Altitude Azimuth
Cosmos 2082 Rocket 3.8 23:49:04 10° NW 23:54:18 38° WSW 23:59:30 10° S
Okean-O 4.5 23:52:30 10° E 23:54:58 15° ENE 23:57:27 10° NNE
Cosmos 1825 2.6 23:52:08 10° N 23:55:20 34° ENE 23:58:31 10° SE
